Weather in Pogost

Russia / Ryazan Oblast     55°00′26″N   41°09′28″E
temp.,
°C
wind,
m/s
gust,
m/s
humid.,
%
clouds,
%
prec.,
mm/h
press.,
hPa
HPBL,
m
20 september, mon
mon2000:00+6e61478100 0.8 1020652
03:00+5e61492100 6.1 1020640
06:00+5e71593100 8.1 1019684
09:00+5e71693100 14.8 1019743
12:00+5e71693100 3.8 1019885
15:00+6e71593100 5.0 1019976
18:00+6e71493100 1.1 1019971
21:00+6ese71492100 2.1 1019951
21 september, tue
tue2100:00+6ese71491100 0.4 1018919
03:00+6e61394100 2.9 1017794
06:00+6e51293100 1.1 1016695
09:00+6ese51195100 3.6 1016670
12:00+6e51095100 0.8 1015580
15:00+7e41095100 1.4 1014578
18:00+7e41097100 2.9 1013518
21:00+7e41097100 3.8 1013468
22 september, wed
wed2200:00+7e3897100 1.0 1012421
03:00+7ene3798100 4.0 1011372
06:00+6ene3697100 2.2 1010393
09:00+6ene2597100 3.5 1011349
12:00+9e2288100 0.3 1011539
15:00+10e2383100 0.3 1012613
18:00+8ne249698 0.0 1012133
21:00+8ne1198100 0.4 101343
23 september, thu
thu2300:00+8s389699 1.1 1014450
03:00+5sse259739 1.3 1015102
06:00+6se2694100 0.0 1016210
09:00+8se2691100 0.0 1017313
12:00+11se3572100 0.0 1017732
15:00+12se3464100 0.0 10161049
18:00+9ese2589100 0.1 1016128
21:00+9sse2289100 0.1 101659
24 september, fri
fri2400:00+7s2295100 0.0 101628
03:00+7se2296100 0.0 101637
06:00+7se2494100 0.0 1015123
09:00+8se2494100 1.1 1014190
12:00+9sse2492100 0.6 1012260
15:00+9se2489100 0.9 1011280
18:00+8se2694100 0.0 1011190
21:00+7s279470 0.0 1011184